Location: Gu�tanj
(46.5431°N, 14.9692°E)
Time: 18:28:27
(UTC+00:00)

SL-4 R/B - Pass Details

Date: 03 March 2021
Orbit: 428 x 663 km, 51.6° (Epoch: 15 April)

Event Time Altitude Azimuth Distance (km) Brightness Sun altitude
Rises 18:12:35 0° 293° (WNW) 2,487 6.9 -15.1°
Reaches altitude 10° 18:14:51 10° 300° (WNW) 1,583 5.4 -15.5°
Maximum altitude 18:18:14 43° 14° (NNE) 622 2.2 -16.1°
Enters shadow 18:19:15 33° 59° (ENE) 753 2.3 -16.3°
